SCP
0 0 0 0 0 0 0 0 0 0 0 0 0 0 0 0 0 0 0 0 0 0 0 0 0 0 0 0 0 0 0 0 0 0 0 0 0 0 0 0 0 0 0 0
0 0 0 0 0 0 0 0 0 0 0 0 0 0 0 0 0 0 0 0 0 0 0 0 0 0 0 0 0 0 0 0 0 0 0 0 0 0 0 0 0 0 0 0
0 0 0 0 0 0 0 0 0 0 0 0 0 0 0 0 0 0 0 0 0 0 0 0 0 0 0 0 0 0 0 0 0 0 0 0 0 0 0 0 0 0 0 0
0 0 0 0 0 0 0 0 0 0 0 0 0 0 0 0 0 0 0 0 0 0 0 0 0 0 0 0 0 0 0 0 0 0 0 0 0 0 0 0 0 0 0 0
0 0 0 0 0 0 0 0 0 0 0 0 0 0 0 0 0 0 0 0 0 0 0 0 0 0 0 0 0 0 0 0 0 0 0 0 0 0 0 0 0 0 0 0
0 0 0 0 0 0 0 0 0 0 0 0 0 0 0 0 0 0 0 0 0 0 0 0 0 0 0 0 0 0 0 0 0 0 0 0 0 0 0 0 0 0 0 0
0 0 0 0 0 0 0 0 0 0 0 0 0 0 0 0 0 0 0 0 0 0 0 0 0 0 0 0 0 0 0 0 0 0 0 0 0 0 0 0 0 0 0 0
0 0 0 0 0 0 0 0 -0 0 0 0 0 0 0 0 0 0 0 0 0 0 0 0 0 0 0 0 0 0 0 0 0 0 0 0 0 0 0 0 0 0 0 0
0 0 0 0 0 0 0 0 0 0 0 0 0 0 0 0 0 0 0 0 0 0 0 0 0 0 0 0 0 0 0 0 0 0 0 0 0 0 0 0 0 0 0 0
0 0 0 0 0 0 0 0 0 0 0 0 0 0 0 0 0 0 0 0 0 0 0 0 0 0 0 0 0 0 0 0 0 0 0 0 0 0 0 0 0 0 0 0
0 0 0 0 0 0 0 0 0 0 0 0 0 0 0 0 0 0 0 0 0 0 0 0 0 0 0 0 0 0 0 0 0 0 0 0 0 0 0 0 0 0 0 0
0 0 0 0 0 0 0 0 0 0 0 0 0 0 0 0 0 0 0 0 0 0 0 0 0 0 0 0 0 0 0 0 0 0 0 0 0 0 0 0 0 0 0 0
0 0 0 0 0 0 0 0 0 0 0 0 0 0 0 0 0 0 0 0 0 0 0 0 0 0 0 0 0 0 0 0 0 0 0 0 0 0 0 0 0 0 0 0
0 0 0 0 0 0 0 0 0 0 0 0 0 0 0 0 0 0 0 0 0 0 0 0 0 0 0 0 0 0 0 0 0 0 0 0 0 0 0 0 0 0 0 0
0 0 0 0 0 0 0 0 0 0 0 0 0 0 0 0 0 0 0 0 0 0 0 0 0 0 0 0 0 0 0 0 0 0 0 0 0 0 0 0 0 0 0 0
0 0 0 0 0 0 0 0 0 0 0 0 0 0 0 0 0 0 0 0 0 0 0 0 0 0 0 0 0 0 0 0 0 0 0 0 0 0 0 0 0 0 0 0
0 0 0 0 0 0 0 0 0 0 0 0 0 0 0 0 0 0 0 0 0 0 0 0 0 0 0 0 0 0 0 0 0 0 0 0 0 0 0 0 0 0 0 0
0 0 0 0 0 0 0 0 0 0 0 0 0 0 0 0 0 0 0 0 0 0 0 0 0 0 0 0 0 0 0 0 0 0 0 0 0 0 0 0 0 0 0 0
0 0 0 0 0 0 0 0 0 0 0 0 0 0 0 0 0 0 0 0 0 0 0 0 0 0 0 0 0 0 0 0 0 0 0 0 0 0 0 0 0 0 0 0
0 0 0 0 0 0 0 0 0 0 0 0 0 0 0 0 0 0 0 0 0 0 0 0 0 0 0 0 0 0 0 0 0 0 0 0 0 0 0 0 0 0 0 0
0 0 0 0 0 0 0 0 0 0 0 0 0 0 0 0 0 0 0 0 0 0 0 0 0 0 0 0 0 0 0 0 0 0 0 0 0 0 0 0 0 0 0 0
0 0 0 0 0 0 0 0 0 0 0 0 0 0 0 0 0 0 0 0 0 0 0 0 0 0 0 0 0 0 0 0 0 0 0 0 0 0 0 0 0 0 0 0
0 0 0 0 0 0 0 0 0 0 0 0 0 0 0 0 0 0 0 0 0 0 0 0 0 0 0 0 0 0 0 0 0 0 0 0 0 0 0 0 0 0 0 0
0 0 0 0 0 0 0 0 0 0 0 0 0 0 0 0 0 0 0 0 0 0 0 0 0 0 0 0 0 0 0 0 0 0 0 0 0 0 0 0 0 0 0 0
0 0 0 0 0 0 0 0 0 0 0 0 0 0 0 0 0 0 0 0 0 0 0 0 0 0 0 0 0 0 0 0 0 0 0 0 0 0 0 0 0 0 0 0
0 0 0 0 0 0 0 0 0 0 0 0 0 0 0 0 0 0 0 0 0 0 0 0 0 0 0 0 0 0 0 0 0 0 0 0 0 0 0 0 0 0 0 0
0 0 0 0 0 0 0 0 0 0 0 0 0 0 0 0 0 0 0 0 0 0 0 0 0 0 0 0 0 0 0 0 0 0 0 0 0 0 0 0 0 0 0 0
Wind_Speed_500mb
8 7 5 6 8 15 14 9 11 8 13 11 19 26 49 53 49 47 58 57 53 42 33 23 20 17 16 10 6 8 15 15 13 15 15 16 15 13 18 20 20 21 22 21
3 8 10 8 4 14 4 7 5 4 9 13 20 32 29 45 49 53 62 61 54 41 33 26 19 17 16 12 10 12 14 12 10 13 13 11 15 15 15 18 21 22 23 23
7 8 12 9 7 8 7 8 12 8 14 9 9 30 45 45 53 61 62 65 54 43 33 21 19 15 14 12 13 15 16 12 12 13 12 11 13 14 14 19 23 25 25 25
4 7 1 13 9 13 7 3 10 4 9 15 16 33 36 41 53 57 58 58 47 41 31 23 20 17 12 14 14 15 16 14 13 13 11 13 19 14 13 18 25 26 28 31
6 5 9 12 4 4 7 11 6 7 4 7 1 4 23 29 47 53 54 44 39 32 26 22 19 16 13 13 11 15 15 16 13 11 11 16 15 16 13 21 25 29 34 34
4 3 7 9 13 4 6 8 4 4 10 9 7 3 13 17 27 31 29 30 29 28 29 23 15 17 15 12 12 16 14 13 14 12 4 6 11 6 14 22 26 27 35 36
4 4 11 12 10 12 7 13 13 21 18 17 8 14 19 14 5 11 19 19 24 29 21 11 10 13 14 14 13 11 15 13 13 15 13 11 15 21 28 33 34 30 34 36
4 3 12 1 5 6 11 9 22 24 21 25 19 11 2 8 17 22 20 18 19 19 19 16 14 10 8 11 7 11 14 16 16 17 19 21 27 28 33 37 39 40 43 33
15 11 11 4 11 14 17 19 30 24 19 24 23 13 17 24 24 20 18 12 11 12 17 21 21 19 12 6 7 10 16 17 18 20 24 28 34 35 38 37 37 37 37 35
4 4 9 11 17 18 17 21 18 24 23 26 24 18 20 25 27 26 26 20 18 19 24 27 25 23 15 10 16 21 23 24 25 29 28 30 35 36 37 36 37 39 40 37
8 14 8 4 6 6 8 13 19 25 27 26 30 28 25 29 33 32 29 24 21 17 19 17 25 27 17 15 22 28 30 33 35 35 38 40 41 41 41 40 39 42 39 38
11 13 6 3 11 6 12 14 16 24 35 38 40 25 24 29 21 35 36 25 23 25 24 17 29 32 26 27 30 36 40 43 44 44 47 50 53 54 48 46 44 44 40 41
4 13 13 10 10 7 3 13 20 24 25 34 47 49 36 27 16 31 40 31 33 32 33 21 40 38 33 34 39 44 47 48 49 52 56 61 65 67 68 61 52 49 47 47
13 18 9 6 4 7 14 19 25 26 24 27 27 41 52 39 22 13 28 34 25 23 30 40 35 37 31 47 46 53 57 60 65 67 69 72 73 73 74 75 70 68 52 56
12 5 6 3 9 17 24 36 38 22 22 21 24 19 25 38 32 23 16 15 22 31 35 38 41 41 44 51 48 43 48 53 53 57 58 60 60 60 62 58 62 71 62 51
19 7 6 7 14 27 32 30 14 9 5 11 17 12 2 9 11 11 19 18 15 15 19 17 19 28 33 32 37 40 43 46 50 51 51 51 52 52 49 48 49 49 49 47
26 13 11 17 23 26 20 7 5 10 20 29 34 32 26 19 15 9 3 2 6 8 10 15 20 27 34 41 45 48 49 49 49 49 48 46 45 46 49 45 44 42 44 48
11 10 13 11 6 3 17 24 29 29 26 23 21 20 23 23 30 29 25 19 14 13 18 27 35 42 47 48 49 49 48 47 47 47 49 50 49 47 42 41 41 40 37 41
11 8 4 5 22 28 32 32 28 28 28 28 28 31 29 29 25 22 18 16 21 28 34 40 44 46 47 50 52 53 54 54 53 51 49 47 46 44 39 37 33 34 44 49
10 8 11 26 32 31 34 33 34 34 31 25 26 25 22 19 17 18 24 30 32 33 35 38 42 46 51 54 55 56 56 55 52 50 47 45 45 45 42 41 42 44 47 49
4 17 28 40 38 36 35 36 32 32 29 24 21 21 17 14 16 23 25 28 28 30 33 40 48 53 57 60 62 62 60 58 55 53 51 49 47 44 42 40 40 41 43 45
13 36 46 46 43 42 35 28 27 31 26 20 18 17 17 22 25 30 31 27 29 32 38 45 51 57 62 62 58 53 49 46 45 43 45 48 50 51 48 45 44 42 40 44
33 47 48 46 44 40 36 30 27 23 21 15 14 17 21 26 26 24 26 28 30 33 39 47 55 57 52 48 48 45 43 40 41 47 52 51 46 46 48 37 35 35 38 42
46 49 48 44 37 34 34 31 23 16 12 12 14 17 21 24 26 26 26 26 31 39 48 50 45 42 44 47 42 37 41 43 41 46 51 50 49 44 41 26 25 41 38 41
47 47 44 34 24 32 31 26 16 9 6 8 13 18 22 24 25 26 28 34 41 42 37 36 38 40 38 35 30 34 36 43 47 51 51 48 44 40 37 29 29 41 37 42
43 39 30 20 23 30 24 18 9 5 2 9 16 21 24 26 28 30 35 37 36 35 36 41 43 37 32 28 26 28 35 40 45 45 45 43 41 41 38 37 29 29 36 42
34 31 30 33 32 27 21 15 13 9 6 11 17 21 23 27 30 33 34 36 35 37 42 42 37 25 23 24 22 27 32 40 40 42 43 41 39 40 36 31 31 37 35 38
Wind_Direction_500mb
211 247 228 235 203 173 194 169 167 254 213 260 214 211 213 212 209 212 207 213 214 211 220 227 237 247 243 254 276 302 296 270 282 312 315 339 352 355 0 3 3 4 3 3
324 11 10 268 307 180 151 151 270 129 257 228 238 227 222 212 210 215 213 216 212 214 221 227 245 249 242 252 282 307 312 285 292 324 323 351 5 359 2 8 8 3 1 359
261 3 359 347 286 199 192 178 148 170 234 178 198 217 230 219 217 220 221 221 211 220 223 228 248 243 251 260 275 302 303 293 295 326 335 318 336 344 356 358 356 356 355 347
198 24 322 247 310 236 179 205 193 251 256 222 244 236 243 232 225 226 231 229 217 222 222 229 241 236 244 258 274 295 300 296 288 314 323 321 312 317 350 352 335 341 333 326
120 180 280 308 273 126 178 255 203 232 279 175 161 251 261 254 236 246 245 237 224 223 227 234 244 236 239 249 278 298 306 292 283 297 314 324 313 294 312 319 337 345 338 326
117 139 214 246 318 285 111 302 286 220 212 176 151 13 272 282 257 235 238 222 215 219 224 236 239 238 238 252 277 304 308 294 278 272 273 326 343 315 300 308 322 330 337 331
134 180 277 236 155 334 81 238 197 219 228 201 192 235 310 307 209 170 175 188 218 223 233 228 235 244 253 260 275 299 296 299 287 273 269 279 291 293 296 300 306 313 321 328
102 104 280 333 66 128 212 268 220 209 212 226 224 288 312 162 152 158 183 192 217 226 230 215 229 246 258 276 260 280 294 298 294 288 286 290 294 297 295 299 303 310 319 327
175 214 220 179 314 286 259 206 224 222 214 222 221 213 182 175 175 192 208 205 207 216 218 224 237 247 265 271 294 296 295 304 310 304 299 296 294 296 294 291 295 306 316 320
56 265 243 272 302 264 239 208 232 226 215 206 205 187 180 198 197 204 216 220 215 220 233 241 248 257 274 255 273 285 294 299 303 307 311 301 293 293 293 293 293 298 305 300
260 274 267 350 318 311 196 212 239 225 224 210 204 204 206 204 214 224 222 230 231 238 252 267 261 264 272 266 270 280 287 289 291 296 302 305 303 298 292 293 291 294 295 296
219 198 157 57 46 97 180 232 250 249 238 233 224 233 221 215 247 243 230 233 250 256 263 305 289 272 273 271 272 280 285 290 293 297 299 298 298 299 300 294 290 286 285 290
287 157 127 118 82 75 294 292 284 285 294 272 252 240 239 210 224 267 243 239 253 268 284 303 289 278 289 290 283 285 293 302 307 307 306 303 300 295 294 298 301 286 285 288
231 174 147 138 46 317 307 307 307 308 313 315 298 260 244 225 227 276 269 242 247 258 252 280 275 283 306 295 296 292 291 291 293 298 302 305 306 306 300 292 291 298 304 292
221 170 97 186 276 288 292 299 302 298 308 322 343 326 261 240 226 243 298 226 257 270 271 278 277 281 281 290 299 300 296 300 300 299 300 304 308 311 311 310 298 298 306 303
255 217 188 242 290 302 313 320 281 247 306 15 27 36 105 177 176 180 194 280 287 291 307 311 293 294 307 322 317 319 319 317 314 313 311 309 309 311 318 322 318 314 308 309
223 241 285 304 313 321 316 270 201 108 95 96 97 105 117 126 133 132 130 350 360 358 13 350 358 348 337 333 331 328 326 324 323 320 317 312 309 310 313 315 314 313 313 316
240 276 292 314 344 98 115 114 113 112 109 109 108 107 100 100 89 82 74 65 47 15 358 354 346 340 336 336 340 341 341 337 332 328 324 322 321 320 319 314 311 310 313 315
228 251 310 132 147 138 125 121 117 108 105 105 107 103 95 84 74 63 43 5 352 349 353 352 349 346 346 347 345 342 340 337 335 334 330 324 319 318 317 316 313 311 317 318
222 233 170 161 154 146 136 129 127 122 120 122 113 110 99 78 44 9 352 349 348 352 352 349 348 347 349 348 346 344 342 339 336 331 328 326 325 322 320 317 314 313 314 318
265 174 169 164 152 144 138 135 132 124 116 110 104 88 69 49 17 8 359 360 5 359 349 344 344 344 343 340 336 331 328 325 323 323 324 324 324 327 330 327 322 322 329 335
196 176 165 155 147 142 139 139 137 126 118 104 85 65 40 28 16 7 3 2 358 346 338 337 336 335 332 330 330 333 336 337 338 339 339 337 334 327 321 322 329 333 334 333
180 169 159 154 149 142 143 142 132 126 111 88 57 34 21 16 9 2 358 357 347 335 330 328 327 327 332 340 343 344 347 350 353 355 355 352 347 344 345 344 354 349 346 337
175 170 162 155 150 153 148 145 138 123 93 67 33 20 9 1 359 357 353 342 331 328 327 329 335 341 345 350 357 3 3 3 3 1 355 352 354 354 357 7 17 8 357 348
179 170 166 161 173 175 161 154 148 128 82 29 13 5 0 357 354 348 337 331 329 332 337 339 340 341 349 357 4 7 18 11 5 359 354 354 356 4 3 3 349 353 1 12
183 186 177 174 188 181 172 165 184 178 15 351 352 349 344 344 341 337 335 337 341 343 339 336 333 332 342 351 357 11 11 7 2 3 8 13 13 10 10 15 16 5 360 3
189 193 189 187 191 192 191 196 220 251 278 322 335 335 333 336 336 335 337 339 341 341 339 339 339 342 349 354 5 9 4 2 10 15 17 16 17 18 19 10 0 350 344 344
Wind_Speed_850mb
8 7 5 6 8 15 14 9 11 8 13 11 19 26 49 53 49 47 58 57 53 42 33 23 20 17 16 10 6 8 15 15 13 15 15 16 15 13 18 20 20 21 22 21
3 8 10 8 4 14 4 7 5 4 9 13 20 32 29 45 49 53 62 61 54 41 33 26 19 17 16 12 10 12 14 12 10 13 13 11 15 15 15 18 21 22 23 23
7 8 12 9 7 8 7 8 12 8 14 9 9 30 45 45 53 61 62 65 54 43 33 21 19 15 14 12 13 15 16 12 12 13 12 11 13 14 14 19 23 25 25 25
4 7 1 13 9 13 7 3 10 4 9 15 16 33 36 41 53 57 58 58 47 41 31 23 20 17 12 14 14 15 16 14 13 13 11 13 19 14 13 18 25 26 28 31
6 5 9 12 4 4 7 11 6 7 4 7 1 4 23 29 47 53 54 44 39 32 26 22 19 16 13 13 11 15 15 16 13 11 11 16 15 16 13 21 25 29 34 34
4 3 7 9 13 4 6 8 4 4 10 9 7 3 13 17 27 31 29 30 29 28 29 23 15 17 15 12 12 16 14 13 14 12 4 6 11 6 14 22 26 27 35 36
4 4 11 12 10 12 7 13 13 21 18 17 8 14 19 14 5 11 19 19 24 29 21 11 10 13 14 14 13 11 15 13 13 15 13 11 15 21 28 33 34 30 34 36
4 3 12 1 5 6 11 9 22 24 21 25 19 11 2 8 17 22 20 18 19 19 19 16 14 10 8 11 7 11 14 16 16 17 19 21 27 28 33 37 39 40 43 33
15 11 11 4 11 14 17 19 30 24 19 24 23 13 17 24 24 20 18 12 11 12 17 21 21 19 12 6 7 10 16 17 18 20 24 28 34 35 38 37 37 37 37 35
4 4 9 11 17 18 17 21 18 24 23 26 24 18 20 25 27 26 26 20 18 19 24 27 25 23 15 10 16 21 23 24 25 29 28 30 35 36 37 36 37 39 40 37
8 14 8 4 6 6 8 13 19 25 27 26 30 28 25 29 33 32 29 24 21 17 19 17 25 27 17 15 22 28 30 33 35 35 38 40 41 41 41 40 39 42 39 38
11 13 6 3 11 6 12 14 16 24 35 38 40 25 24 29 21 35 36 25 23 25 24 17 29 32 26 27 30 36 40 43 44 44 47 50 53 54 48 46 44 44 40 41
4 13 13 10 10 7 3 13 20 24 25 34 47 49 36 27 16 31 40 31 33 32 33 21 40 38 33 34 39 44 47 48 49 52 56 61 65 67 68 61 52 49 47 47
13 18 9 6 4 7 14 19 25 26 24 27 27 41 52 39 22 13 28 34 25 23 30 40 35 37 31 47 46 53 57 60 65 67 69 72 73 73 74 75 70 68 52 56
12 5 6 3 9 17 24 36 38 22 22 21 24 19 25 38 32 23 16 15 22 31 35 38 41 41 44 51 48 43 48 53 53 57 58 60 60 60 62 58 62 71 62 51
19 7 6 7 14 27 32 30 14 9 5 11 17 12 2 9 11 11 19 18 15 15 19 17 19 28 33 32 37 40 43 46 50 51 51 51 52 52 49 48 49 49 49 47
26 13 11 17 23 26 20 7 5 10 20 29 34 32 26 19 15 9 3 2 6 8 10 15 20 27 34 41 45 48 49 49 49 49 48 46 45 46 49 45 44 42 44 48
11 10 13 11 6 3 17 24 29 29 26 23 21 20 23 23 30 29 25 19 14 13 18 27 35 42 47 48 49 49 48 47 47 47 49 50 49 47 42 41 41 40 37 41
11 8 4 5 22 28 32 32 28 28 28 28 28 31 29 29 25 22 18 16 21 28 34 40 44 46 47 50 52 53 54 54 53 51 49 47 46 44 39 37 33 34 44 49
10 8 11 26 32 31 34 33 34 34 31 25 26 25 22 19 17 18 24 30 32 33 35 38 42 46 51 54 55 56 56 55 52 50 47 45 45 45 42 41 42 44 47 49
4 17 28 40 38 36 35 36 32 32 29 24 21 21 17 14 16 23 25 28 28 30 33 40 48 53 57 60 62 62 60 58 55 53 51 49 47 44 42 40 40 41 43 45
13 36 46 46 43 42 35 28 27 31 26 20 18 17 17 22 25 30 31 27 29 32 38 45 51 57 62 62 58 53 49 46 45 43 45 48 50 51 48 45 44 42 40 44
33 47 48 46 44 40 36 30 27 23 21 15 14 17 21 26 26 24 26 28 30 33 39 47 55 57 52 48 48 45 43 40 41 47 52 51 46 46 48 37 35 35 38 42
46 49 48 44 37 34 34 31 23 16 12 12 14 17 21 24 26 26 26 26 31 39 48 50 45 42 44 47 42 37 41 43 41 46 51 50 49 44 41 26 25 41 38 41
47 47 44 34 24 32 31 26 16 9 6 8 13 18 22 24 25 26 28 34 41 42 37 36 38 40 38 35 30 34 36 43 47 51 51 48 44 40 37 29 29 41 37 42
43 39 30 20 23 30 24 18 9 5 2 9 16 21 24 26 28 30 35 37 36 35 36 41 43 37 32 28 26 28 35 40 45 45 45 43 41 41 38 37 29 29 36 42
34 31 30 33 32 27 21 15 13 9 6 11 17 21 23 27 30 33 34 36 35 37 42 42 37 25 23 24 22 27 32 40 40 42 43 41 39 40 36 31 31 37 35 38
Wind_Direction_850mb
211 247 228 235 203 173 194 169 167 254 213 260 214 211 213 212 209 212 207 213 214 211 220 227 237 247 243 254 276 302 296 270 282 312 315 339 352 355 0 3 3 4 3 3
324 11 10 268 307 180 151 151 270 129 257 228 238 227 222 212 210 215 213 216 212 214 221 227 245 249 242 252 282 307 312 285 292 324 323 351 5 359 2 8 8 3 1 359
261 3 359 347 286 199 192 178 148 170 234 178 198 217 230 219 217 220 221 221 211 220 223 228 248 243 251 260 275 302 303 293 295 326 335 318 336 344 356 358 356 356 355 347
198 24 322 247 310 236 179 205 193 251 256 222 244 236 243 232 225 226 231 229 217 222 222 229 241 236 244 258 274 295 300 296 288 314 323 321 312 317 350 352 335 341 333 326
120 180 280 308 273 126 178 255 203 232 279 175 161 251 261 254 236 246 245 237 224 223 227 234 244 236 239 249 278 298 306 292 283 297 314 324 313 294 312 319 337 345 338 326
117 139 214 246 318 285 111 302 286 220 212 176 151 13 272 282 257 235 238 222 215 219 224 236 239 238 238 252 277 304 308 294 278 272 273 326 343 315 300 308 322 330 337 331
134 180 277 236 155 334 81 238 197 219 228 201 192 235 310 307 209 170 175 188 218 223 233 228 235 244 253 260 275 299 296 299 287 273 269 279 291 293 296 300 306 313 321 328
102 104 280 333 66 128 212 268 220 209 212 226 224 288 312 162 152 158 183 192 217 226 230 215 229 246 258 276 260 280 294 298 294 288 286 290 294 297 295 299 303 310 319 327
175 214 220 179 314 286 259 206 224 222 214 222 221 213 182 175 175 192 208 205 207 216 218 224 237 247 265 271 294 296 295 304 310 304 299 296 294 296 294 291 295 306 316 320
56 265 243 272 302 264 239 208 232 226 215 206 205 187 180 198 197 204 216 220 215 220 233 241 248 257 274 255 273 285 294 299 303 307 311 301 293 293 293 293 293 298 305 300
260 274 267 350 318 311 196 212 239 225 224 210 204 204 206 204 214 224 222 230 231 238 252 267 261 264 272 266 270 280 287 289 291 296 302 305 303 298 292 293 291 294 295 296
219 198 157 57 46 97 180 232 250 249 238 233 224 233 221 215 247 243 230 233 250 256 263 305 289 272 273 271 272 280 285 290 293 297 299 298 298 299 300 294 290 286 285 290
287 157 127 118 82 75 294 292 284 285 294 272 252 240 239 210 224 267 243 239 253 268 284 303 289 278 289 290 283 285 293 302 307 307 306 303 300 295 294 298 301 286 285 288
231 174 147 138 46 317 307 307 307 308 313 315 298 260 244 225 227 276 269 242 247 258 252 280 275 283 306 295 296 292 291 291 293 298 302 305 306 306 300 292 291 298 304 292
221 170 97 186 276 288 292 299 302 298 308 322 343 326 261 240 226 243 298 226 257 270 271 278 277 281 281 290 299 300 296 300 300 299 300 304 308 311 311 310 298 298 306 303
255 217 188 242 290 302 313 320 281 247 306 15 27 36 105 177 176 180 194 280 287 291 307 311 293 294 307 322 317 319 319 317 314 313 311 309 309 311 318 322 318 314 308 309
223 241 285 304 313 321 316 270 201 108 95 96 97 105 117 126 133 132 130 350 360 358 13 350 358 348 337 333 331 328 326 324 323 320 317 312 309 310 313 315 314 313 313 316
240 276 292 314 344 98 115 114 113 112 109 109 108 107 100 100 89 82 74 65 47 15 358 354 346 340 336 336 340 341 341 337 332 328 324 322 321 320 319 314 311 310 313 315
228 251 310 132 147 138 125 121 117 108 105 105 107 103 95 84 74 63 43 5 352 349 353 352 349 346 346 347 345 342 340 337 335 334 330 324 319 318 317 316 313 311 317 318
222 233 170 161 154 146 136 129 127 122 120 122 113 110 99 78 44 9 352 349 348 352 352 349 348 347 349 348 346 344 342 339 336 331 328 326 325 322 320 317 314 313 314 318
265 174 169 164 152 144 138 135 132 124 116 110 104 88 69 49 17 8 359 360 5 359 349 344 344 344 343 340 336 331 328 325 323 323 324 324 324 327 330 327 322 322 329 335
196 176 165 155 147 142 139 139 137 126 118 104 85 65 40 28 16 7 3 2 358 346 338 337 336 335 332 330 330 333 336 337 338 339 339 337 334 327 321 322 329 333 334 333
180 169 159 154 149 142 143 142 132 126 111 88 57 34 21 16 9 2 358 357 347 335 330 328 327 327 332 340 343 344 347 350 353 355 355 352 347 344 345 344 354 349 346 337
175 170 162 155 150 153 148 145 138 123 93 67 33 20 9 1 359 357 353 342 331 328 327 329 335 341 345 350 357 3 3 3 3 1 355 352 354 354 357 7 17 8 357 348
179 170 166 161 173 175 161 154 148 128 82 29 13 5 0 357 354 348 337 331 329 332 337 339 340 341 349 357 4 7 18 11 5 359 354 354 356 4 3 3 349 353 1 12
183 186 177 174 188 181 172 165 184 178 15 351 352 349 344 344 341 337 335 337 341 343 339 336 333 332 342 351 357 11 11 7 2 3 8 13 13 10 10 15 16 5 360 3
189 193 189 187 191 192 191 196 220 251 278 322 335 335 333 336 336 335 337 339 341 341 339 339 339 342 349 354 5 9 4 2 10 15 17 16 17 18 19 10 0 350 344 344